Flag for Norway Weather past 2 weeks in Namsos, Norway

Now
37 °F

Light rain. Partly cloudy.


Feels Like: 27 °F
Forecast: 38 / 42 °F
Wind: 18 mph from South

Location: Namsos Lufthavn

Current Time: Jan 27, 2015 at 6:59:21 PM

Latest Report: Jan 27, 2015 at 6:20 PM


Visibility: N/A

Pressure: 29.39 "Hg

Humidity: 87%

Dew point: 34 °F

Location of NamsosLocation

Historic Weather in Namsos — Graph

°F

Namsos temperature yesterday

Maximum temperature yesterday: 41 °F (at 7:20 AM)
Minimum temperature yesterday: 34 °F (at 8:50 PM)
Average temperature yesterday: 38 °F

Past Weeks' High & Low Weather Summary

 TemperatureHumidityPressure
High46 °F (Jan 23, 8:50 PM)100% (Jan 23, 8:50 PM)30.33 "Hg (Jan 23, 8:50 PM)
Low16 °F (Jan 23, 6:50 AM)0% (Jan 15, 8:20 AM)28.68 "Hg (Jan 13, 6:20 AM)
Average30 °F71%29.52 "Hg
* Reported Jan 12 5:20 PM — Jan 27 5:50 PM, Namsos, Weather by CustomWeather, © 2014

Note: Actual official high and low records may vary slightly from our data, if they occured in-between our weather recording intervals... More about our weather records

Advertising

Namsos weather history for previous 24 hours

 ConditionsComfort  
Time TempWeatherWind HumidityBarometerVisibility
5:50 PM
Jan 27
37 °FLight rain. Partly cloudy.16 mph87%29.39 "HgN/A
5:20 PM37 °FLight rain. Partly cloudy.12 mph87%29.42 "HgN/A
4:50 PM37 °FLight rain. Partly cloudy.12 mph87%29.42 "HgN/A
4:20 PM36 °FSprinkles. Partly cloudy.8 mph87%29.45 "HgN/A
3:50 PM36 °FSprinkles. Partly cloudy.10 mph93%29.47 "HgN/A
3:20 PM34 °FScattered showers. Broken clouds.9 mph93%29.47 "HgN/A
2:50 PM34 °FBroken clouds.6 mph93%29.50 "HgN/A
2:20 PM36 °FSprinkles. Partly sunny.6 mph93%29.53 "HgN/A
1:50 PM36 °FSprinkles. Partly sunny.9 mph93%29.53 "HgN/A
1:20 PM37 °FSprinkles. Partly sunny.9 mph81%29.53 "HgN/A
12:50 PM37 °FSprinkles. Partly sunny.10 mph81%29.53 "HgN/A
12:20 PM37 °FScattered showers. Broken clouds.N/A81%29.53 "HgN/A
11:50 AM37 °FBroken clouds.24 mph81%29.53 "HgN/A
11:20 AM36 °FBroken clouds.24 mph87%29.53 "HgN/A
10:20 AM36 °FSprinkles. Broken clouds.14 mph81%29.56 "HgN/A
9:50 AM36 °FScattered showers. Broken clouds.12 mph87%29.56 "HgN/A
9:20 AM36 °FSprinkles. Broken clouds.12 mph87%29.59 "HgN/A
8:50 AM36 °FRain showers. Passing clouds.14 mph87%29.59 "Hg2 mi
8:20 AM34 °FScattered showers. Passing clouds.5 mph93%29.59 "HgN/A
7:50 AM32 °FPassing clouds.5 mph100%29.59 "HgN/A
7:20 AM34 °FSnow flurries. Fog.2 mph93%29.62 "Hg2 mi
6:50 AM34 °FPassing clouds.5 mph93%29.62 "HgN/A
6:20 AM34 °FSleet. Passing clouds.10 mph93%29.62 "HgN/A
5:50 AM34 °FPassing clouds.5 mph93%29.62 "HgN/A
9:50 PM
Jan 26
34 °FPassing clouds.3 mph93%29.59 "HgN/A
9:20 PM34 °FPassing clouds.5 mph93%29.59 "HgN/A
8:50 PM34 °FSprinkles. Passing clouds.7 mph93%29.59 "Hg3 mi
8:20 PM36 °FSprinkles. Partly cloudy.9 mph87%29.59 "Hg4 mi
7:50 PM37 °FPassing clouds.15 mph81%29.56 "HgN/A
7:20 PM39 °FPassing clouds.16 mph75%29.56 "HgN/A
6:50 PM37 °FSprinkles. Passing clouds.15 mph81%29.56 "HgN/A
6:20 PM39 °FPassing clouds.13 mph75%29.56 "HgN/A
Weather by CustomWeather, © 2014

See weather overviewHow to use our weather pages